Location: Campbell Lake
(32.1204°N, 97.6289°W)
Time: 08:04:23
(UTC+00:00)

ARIANE 6 FM1 Upper Stage - Pass Details

Date: 14 December 2025
Orbit: 522 x 610 km, 62.0° (Epoch: 14 January)

Event Time Altitude Azimuth Distance (km) Brightness Sun altitude
Rises 11:15:10 0° 171° (S) 2,720 6.4 -26.4°
Reaches altitude 10° 11:18:14 10° 147° (SSE) 1,811 5.8 -25.7°
Maximum altitude 11:20:29 15° 113° (ESE) 1,531 5.8 -25.3°
Drops below altitude 10° 11:22:43 10° 79° (E) 1,791 6.1 -24.8°
Sets 11:25:42 0° 55° (NE) 2,671 6.7 -24.2°
